Quantico, VA

2:18 PM EST on December 15, 2019 (GMT -0500)
Quantico Marine Corps Air Facility

Weather History for KNYG - October, 2019

Change the Weather History Date:

Monday, October 28, 2019

  Actual Average Record
Temperature  
Mean Temperature 60 °F -  
Max Temperature 69 °F 61 °F 78 °F (2010)
Min Temperature 53 °F 42 °F 35 °F (1997)
Degree Days  
Heating Degree Days 4    
Growing Degree Days 10 (Base 50)    
Moisture  
Dew Point 51 °F    
Average Humidity 72    
Maximum Humidity 93    
Minimum Humidity 52    
Precipitation  
Precipitation 0.00 in - - ()
Sea Level Pressure  
Sea Level Pressure 30.16 in    
Wind  
Wind Speed 5 mph (NNE)    
Max Wind Speed 10 mph    
Max Gust Speed -    
Visibility 10 miles    
Events      
Averages and records for this station are not official NWS values.
T = Trace of Precipitation, MM = Missing Value Source: NWS Daily Summary

Daily Weather History Graph

Daily Weather History Graph

Search for Another Location

Airport or City:

Astronomy

Oct. 28, 2019 Rise Set
Actual Time 7:31 AM EDT 6:14 PM EDT
Civil Twilight 7:04 AM EDT 6:41 PM EDT
Nautical Twilight 6:32 AM EDT 7:12 PM EDT
Astronomical Twilight 6:02 AM EDT 7:43 PM EDT
Moon 7:50 AM EDT (10/28) 6:58 PM EDT (10/28)
Length of Visible Light 11h 37m
Length of Day
10h 42m
New Moon, 0% of the Moon is Illuminated
Oct 28
New Moon
Nov 4
First Quarter
Nov 12
Full
Nov 19
Last Quarter
Nov 26
New

Hourly Weather History & Observations

Time (EDT) Temp. Dew Point Humidity Pressure Visibility Wind Dir Wind Speed Gust Speed Precip Events Conditions
12:56 AM 60.1 °F 51.1 °F 72% 30.03 in 10.0 mi NW 3.5 mph - N/A   Clear
1:56 AM 57.0 °F 52.0 °F 83% 30.05 in 10.0 mi NW 5.8 mph - N/A   Clear
2:56 AM 60.1 °F 48.9 °F 67% 30.04 in 10.0 mi NNW 10.4 mph - N/A   Clear
3:56 AM 59.0 °F 50.0 °F 72% 30.06 in 10.0 mi North 6.9 mph - N/A   Clear
4:56 AM 57.9 °F 48.9 °F 72% 30.07 in 10.0 mi NNE 6.9 mph - N/A   Clear
5:56 AM 55.0 °F 48.9 °F 80% 30.09 in 10.0 mi North 5.8 mph - N/A   Clear
6:56 AM 54.0 °F 48.9 °F 83% 30.14 in 10.0 mi Calm Calm - N/A   Clear
7:56 AM 53.1 °F 51.1 °F 93% 30.17 in 10.0 mi WNW 5.8 mph - N/A   Clear
8:56 AM 59.0 °F 48.9 °F 69% 30.20 in 10.0 mi North 4.6 mph - N/A   Clear
9:56 AM 61.0 °F 50.0 °F 67% 30.21 in 10.0 mi NE 6.9 mph - N/A   Clear
10:56 AM 62.1 °F 48.9 °F 62% 30.21 in 10.0 mi NNE 10.4 mph - N/A   Clear
11:56 AM 64.9 °F 48.9 °F 56% 30.22 in 10.0 mi NE 6.9 mph - N/A   Clear
12:56 PM 66.0 °F 48.9 °F 54% 30.21 in 10.0 mi North 5.8 mph - N/A   Clear
1:56 PM 68.0 °F 50.0 °F 52% 30.19 in 10.0 mi NE 3.5 mph - N/A   Partly Cloudy
2:56 PM 66.0 °F 53.1 °F 63% 30.17 in 10.0 mi SSE 5.8 mph - N/A   Partly Cloudy
3:56 PM 64.9 °F 54.0 °F 68% 30.17 in 10.0 mi South 6.9 mph - N/A   Mostly Cloudy
4:56 PM 66.0 °F 53.1 °F 63% 30.17 in 10.0 mi South 5.8 mph - N/A   Mostly Cloudy
5:56 PM 64.0 °F 55.9 °F 75% 30.17 in 10.0 mi ESE 3.5 mph - N/A   Clear
6:56 PM 63.0 °F 54.0 °F 72% 30.19 in 10.0 mi SE 5.8 mph - N/A   Clear
7:56 PM 62.1 °F 53.1 °F 72% 30.20 in 10.0 mi SE 5.8 mph - N/A   Clear
8:56 PM 61.0 °F 54.0 °F 78% 30.21 in 10.0 mi East 3.5 mph - N/A   Clear
9:56 PM 59.0 °F 54.0 °F 83% 30.23 in 10.0 mi Calm Calm - N/A   Clear
10:56 PM 57.9 °F 54.0 °F 87% 30.24 in 10.0 mi WSW 3.5 mph - N/A   Clear
11:56 PM 54.0 °F 52.0 °F 93% 30.24 in 10.0 mi WNW 3.5 mph - N/A   Clear